STARLINK-6223, 57057

Orbit data source: Space-Track

STARLINK-6223, 57057 is a payload satellite owned by SpaceX/Seattle (US) in LEO that was launched on Thu, 22 Jun 2023 UTC via an FALCON 9 launch vehicle from the Air Force Western Test Range (AFWTR). Payload-class satellites include a variety of spacecraft equipped with specific instruments for various scientific and technological missions. These include communications satellites like Starlink; space stations such as the ISS; scientific satellites like the Hubble; Earth observation satellites from companies like Planet Labs, Umbra, and HawkEye 360; GPS; miniature CubeSats for education and research; and military/defense satellites.

Loading next visibility...
Identifier
57057, 2023-088K
Orbit
LEO
Country
Flag of USUS
Related business
Manufacturer
SpaceX/Seattle
Mission
Operational Commercial Communications
Bus & Motor
STARLINK, Unknown motor
Mass
305 kg wet, ~290 kg dry
Launch date (UTC)
Icon of a cake. It is the launch day of the satellite!2023-06-22 (3 years ago)
Launch vehicle
FALCON 9
Launch site
Air Force Western Test Range (AFWTR)
Object type
Payload
Rocket body
Debris
Shape & HBR
Box + 1 Pan, 10.1 m
Radar Cross Section
11.087 m², Large (>1 m²)

Expand to show TLE details & history
Last TLE update: 3 days ago

TLE from 3 days ago
0 STARLINK-6223
1 57057U 23088K   26170.68320567  .00000706  00000-0  35172-4 0  9993
2 57057  43.0039 254.4091 0001535 281.4007  78.6672 15.27573951165931
Epoch: 2026-06-19T16:23Z
TLE epoch observation values (Epoch: 2026-06-19T16:23:48.969Z)
Latitude
-0.00005°
Longitude
100.54634°
Altitude
482.636 km
Speed
7.626 km/s
True Right ascension
16h 57m 38s
True Declination
0° 00' 00"
Sunlit
Object was in full shadow at epoch
Visualization orbit readout
Latitude
Unknown
Longitude
Unknown
Altitude
Unknown
Speed
Unknown
Apparent Right ascension
Unknown
Apparent Declination
Unknown
Sunlit
N/A
Visualization observer readout
Local Sidereal Time
21:31:36
Azimuth
Unknown
Elevation
Unknown
Doppler factor
Unknown
Orbital elements
Apogee altitude
486.065 km
Perigee altitude
483.958 km
Semi-major axis
6,863.149 km
Eccentricity
0.00015
Inclination
43.0039°
RAAN
254.4091°
Arg. of periapsis
281.4007°
True anomaly
78.68445°
Mean anomaly
78.6672°
Eccentric anomaly
78.67582°
Mean motion
3.81732 °/min
Orbital period
94.31 mins
BSTAR
0.000035172
Loading maneuver chart data...
Computing Atmospheric mass density...
Loading historical data...
Loading historical data...
Loading historical data...
Loading historical data...
Loading historical data...
Loading historical data...
Loading historical data...

Documentation

Showing up to 5 results
|